Weather History for Mineola, TX

Change the Weather History Date:

Thursday, April 10, 2014

  Actual Average (KTYR) Record (KTYR)
Temperature  
Mean Temperature 71 °F 63 °F  
Max Temperature 82 °F 73 °F 94 °F (1962)
Min Temperature 60 °F 53 °F 29 °F (1973)
Degree Days  
Heating Degree Days 0 4  
Month to date heating degree days 52  
Since 1 July heating degree days 2217  
Cooling Degree Days 6 2  
Month to date cooling degree days 15  
Year to date cooling degree days 48  
Growing Degree Days 21 (Base 50)    
Moisture  
Dew Point 50 °F    
Average Humidity 49    
Maximum Humidity 73    
Minimum Humidity 30    
Precipitation  
Precipitation 0.00 in 0.08 in 1.97 in (1935)
Month to date precipitation 0.96  
Year to date precipitation 11.95  
Snow  
Snow 0.00 in - - ()
Month to date snowfall  
Since 1 July snowfall  
Snow Depth -    
Sea Level Pressure  
Sea Level Pressure 30.00 in    
Wind  
Wind Speed 10 mph (South)    
Max Wind Speed 20 mph    
Max Gust Speed 26 mph    
Visibility 10 miles    
Events      
T = Trace of Precipitation, MM = Missing Value Source: NWS Daily Summary

Daily Weather History Graph

Daily Weather History Graph

Search for Another Location

Airport:

Trip Planner

Search our weather history database for the weather conditions in past years. The results will help you decide how hot, cold, wet, or windy it might be!

Date:

Astronomy

Apr. 10, 2014 Rise Set
Actual Time 6:58 AM CDT 7:48 PM CDT
Civil Twilight 6:33 AM CDT 8:13 PM CDT
Nautical Twilight 6:03 AM CDT 8:43 PM CDT
Astronomical Twilight 5:33 AM CDT 9:13 PM CDT
Moon 3:46 PM CDT (4/10) 4:07 AM CDT (4/10)
Length of Visible Light 13h 40m
Length of Day
12h 50m
Waxing Gibbous, 80% of the Moon is Illuminated
Apr 10
Waxing Gibbous
Apr 15
Full
Apr 22
Last Quarter
Apr 29
New
May 6
First Quarter

Hourly Weather History & Observations

Time (CDT) Temp. Dew Point Humidity Pressure Visibility Wind Dir Wind Speed Gust Speed Precip Events Conditions
12:15 AM 66.2 °F 42.8 °F 43% 30.07 in 10.0 mi South 8.1 mph - N/A   Clear
12:35 AM 66.2 °F 44.6 °F 46% 30.06 in 10.0 mi South 10.4 mph - N/A   Clear
12:55 AM 64.4 °F 44.6 °F 49% 30.06 in 10.0 mi South 9.2 mph 16.1 mph N/A   Clear
1:15 AM 64.4 °F 44.6 °F 49% 30.06 in 10.0 mi South 8.1 mph - N/A   Clear
1:35 AM 64.4 °F 44.6 °F 49% 30.06 in 10.0 mi South 9.2 mph - N/A   Clear
1:55 AM 64.4 °F 46.4 °F 52% 30.05 in 10.0 mi South 9.2 mph - N/A   Clear
2:15 AM 62.6 °F 46.4 °F 55% 30.05 in 10.0 mi South 10.4 mph 16.1 mph N/A   Clear
2:35 AM 62.6 °F 46.4 °F 55% 30.04 in 10.0 mi South 6.9 mph - N/A   Clear
2:55 AM 60.8 °F 46.4 °F 59% 30.04 in 10.0 mi South 6.9 mph - N/A   Clear
3:15 AM 60.8 °F 46.4 °F 59% 30.04 in 10.0 mi South 6.9 mph - N/A   Clear
3:55 AM 60.8 °F 48.2 °F 63% 30.04 in 10.0 mi South 6.9 mph - N/A   Clear
4:15 AM 60.8 °F 48.2 °F 63% 30.03 in 10.0 mi South 6.9 mph - N/A   Clear
4:35 AM 62.6 °F 46.4 °F 55% 30.02 in 10.0 mi South 6.9 mph 16.1 mph N/A   Clear
4:55 AM 60.8 °F 46.4 °F 59% 30.02 in 10.0 mi South 8.1 mph - N/A   Clear
5:15 AM 60.8 °F 46.4 °F 59% 30.02 in 10.0 mi South 6.9 mph - N/A   Clear
5:35 AM 60.8 °F 46.4 °F 59% 30.02 in 10.0 mi South 9.2 mph - N/A   Clear
5:55 AM 60.8 °F 46.4 °F 59% 30.03 in 10.0 mi South 6.9 mph - N/A   Clear
6:15 AM 60.8 °F 46.4 °F 59% 30.03 in 10.0 mi South 9.2 mph 16.1 mph N/A   Clear
6:35 AM 60.8 °F 46.4 °F 59% 30.04 in 10.0 mi South 9.2 mph - N/A   Clear
6:55 AM 60.8 °F 48.2 °F 63% 30.03 in 10.0 mi South 10.4 mph 17.3 mph N/A   Clear
7:15 AM 60.8 °F 48.2 °F 63% 30.04 in 9.0 mi South 8.1 mph - N/A   Clear
7:35 AM 60.8 °F 48.2 °F 63% 30.04 in 9.0 mi South 9.2 mph - N/A   Clear
7:55 AM 60.8 °F 51.8 °F 72% 30.05 in 9.0 mi South 8.1 mph 16.1 mph N/A   Clear
8:15 AM 62.6 °F 51.8 °F 68% 30.05 in 9.0 mi South 11.5 mph 17.3 mph N/A   Clear
8:35 AM 62.6 °F 53.6 °F 72% 30.05 in 8.0 mi South 10.4 mph 18.4 mph N/A   Clear
8:55 AM 64.4 °F 55.4 °F 73% 30.05 in 8.0 mi South 12.7 mph 23.0 mph N/A   Clear
9:15 AM 64.4 °F 55.4 °F 73% 30.06 in 8.0 mi South 15.0 mph 23.0 mph N/A   Clear
9:35 AM 66.2 °F 55.4 °F 68% 30.05 in 9.0 mi SSW 18.4 mph 26.5 mph N/A   Clear
9:55 AM 66.2 °F 55.4 °F 68% 30.05 in 8.0 mi SSW 10.4 mph 23.0 mph N/A   Clear
10:15 AM 68.0 °F 55.4 °F 64% 30.05 in 9.0 mi South 12.7 mph 21.9 mph N/A   Clear
10:35 AM 69.8 °F 55.4 °F 60% 30.05 in 10.0 mi SSW 17.3 mph 20.7 mph N/A   Clear
10:55 AM 71.6 °F 55.4 °F 57% 30.05 in 9.0 mi South 15.0 mph 21.9 mph N/A   Clear
11:15 AM 71.6 °F 53.6 °F 53% 30.05 in 10.0 mi South 16.1 mph 23.0 mph N/A   Clear
11:35 AM 73.4 °F 53.6 °F 50% 30.05 in 10.0 mi SSW 13.8 mph 25.3 mph N/A   Clear
11:55 AM 73.4 °F 53.6 °F 50% 30.04 in 9.0 mi SSW 12.7 mph 21.9 mph N/A   Clear
12:15 PM 75.2 °F 51.8 °F 44% 30.03 in 10.0 mi South 13.8 mph 25.3 mph N/A   Clear
12:35 PM 75.2 °F 51.8 °F 44% 30.03 in 9.0 mi SSW 19.6 mph 26.5 mph N/A   Clear
12:55 PM 77.0 °F 51.8 °F 41% 30.02 in 9.0 mi South 13.8 mph 23.0 mph N/A   Clear
1:15 PM 78.8 °F 48.2 °F 34% 30.02 in 9.0 mi SSW 12.7 mph 25.3 mph N/A   Clear
1:35 PM 78.8 °F 48.2 °F 34% 30.01 in 10.0 mi SSW 16.1 mph 23.0 mph N/A   Partly Cloudy
2:15 PM 80.6 °F 48.2 °F 32% 29.99 in 10.0 mi SSE 12.7 mph 24.2 mph N/A   Clear
2:35 PM 82.4 °F 48.2 °F 30% 29.97 in 9.0 mi South 9.2 mph 19.6 mph N/A   Clear
2:55 PM 80.6 °F 46.4 °F 30% 29.96 in 10.0 mi SSW 16.1 mph 24.2 mph N/A   Scattered Clouds
3:15 PM 80.6 °F 46.4 °F 30% 29.95 in 10.0 mi SSW 16.1 mph 23.0 mph N/A   Scattered Clouds
3:35 PM 82.4 °F 48.2 °F 30% 29.94 in 10.0 mi South 9.2 mph 23.0 mph N/A   Partly Cloudy
3:55 PM 82.4 °F 48.2 °F 30% 29.94 in 10.0 mi South 11.5 mph 23.0 mph N/A   Partly Cloudy
4:15 PM 82.4 °F 48.2 °F 30% 29.94 in 9.0 mi South 12.7 mph 21.9 mph N/A   Partly Cloudy
4:35 PM 82.4 °F 48.2 °F 30% 29.93 in 9.0 mi South 10.4 mph 20.7 mph N/A   Clear
4:55 PM 82.4 °F 48.2 °F 30% 29.92 in 9.0 mi SSE 11.5 mph 18.4 mph N/A   Clear
5:15 PM 80.6 °F 48.2 °F 32% 29.92 in 10.0 mi South 12.7 mph 19.6 mph N/A   Clear
5:35 PM 80.6 °F 48.2 °F 32% 29.91 in 9.0 mi South 16.1 mph 25.3 mph N/A   Clear
5:55 PM 80.6 °F 48.2 °F 32% 29.90 in 10.0 mi South 13.8 mph 26.5 mph N/A   Clear
6:15 PM 80.6 °F 48.2 °F 32% 29.91 in 10.0 mi South 11.5 mph 19.6 mph N/A   Clear
6:35 PM 80.6 °F 50.0 °F 34% 29.92 in 10.0 mi South 8.1 mph 17.3 mph N/A   Clear
6:55 PM 80.6 °F 50.0 °F 34% 29.92 in 9.0 mi South 13.8 mph 19.6 mph N/A   Clear
7:15 PM 78.8 °F 51.8 °F 39% 29.92 in 9.0 mi South 10.4 mph - N/A   Clear
7:35 PM 78.8 °F 51.8 °F 39% 29.93 in 9.0 mi South 5.8 mph - N/A   Clear
7:55 PM 77.0 °F 51.8 °F 41% 29.94 in 9.0 mi South 8.1 mph - N/A   Clear
8:15 PM 75.2 °F 51.8 °F 44% 29.94 in 9.0 mi South 8.1 mph - N/A   Clear
8:35 PM 75.2 °F 51.8 °F 44% 29.94 in 10.0 mi South 8.1 mph - N/A   Clear
8:55 PM 75.2 °F 51.8 °F 44% 29.94 in 9.0 mi South 9.2 mph - N/A   Clear
9:15 PM 75.2 °F 51.8 °F 44% 29.94 in 10.0 mi South 8.1 mph - N/A   Clear
9:35 PM 75.2 °F 51.8 °F 44% 29.95 in 10.0 mi South 9.2 mph - N/A   Clear
9:55 PM 73.4 °F 51.8 °F 47% 29.96 in 10.0 mi South 9.2 mph - N/A   Clear
10:15 PM 73.4 °F 51.8 °F 47% 29.96 in 10.0 mi South 6.9 mph - N/A   Clear
10:35 PM 73.4 °F 55.4 °F 53% 29.97 in 9.0 mi SSE 9.2 mph 16.1 mph N/A   Clear
10:55 PM 71.6 °F 57.2 °F 60% 29.97 in 9.0 mi South 9.2 mph - N/A   Clear
11:15 PM 71.6 °F 57.2 °F 60% 29.97 in 6.0 mi South 11.5 mph 18.4 mph N/A   Haze
11:35 PM 71.6 °F 57.2 °F 60% 29.96 in 10.0 mi SSE 9.2 mph 17.3 mph N/A   Clear
11:55 PM 69.8 °F 57.2 °F 64% 29.97 in 10.0 mi South 8.1 mph 17.3 mph N/A   Clear